This is the latest recevied weather packets stored in our database for station/object KC1BRV. If no packets are shown the sender has not sent any weather packets the latest 10 day(s).
| Time | Temp. | Humidity | Pressure | Rain* | Wind** | Luminosity | Snow |
|---|---|---|---|---|---|---|---|
| 1778025942 | 14.44° C | 74% | 1011.9 hPa | 0 mm | - | 0 W/m² | - |
| 1778025639 | 15° C | 74% | 1011.8 hPa | 0 mm | - | 0 W/m² | - |
| 1778025337 | 15° C | 73% | 1011.6 hPa | 0 mm | - | 1 W/m² | - |
| 1778025034 | 15° C | 73% | 1011.2 hPa | 0 mm | - | 2 W/m² | - |
| 1778024731 | 15° C | 73% | 1011.2 hPa | 0 mm | - | 2 W/m² | - |
| 1778024428 | 15° C | 73% | 1011.3 hPa | 0 mm | - | 4 W/m² | - |
| 1778024125 | 15° C | 72% | 1010.9 hPa | 0 mm | - | 6 W/m² | - |
| 1778023822 | 15° C | 72% | 1011 hPa | 0 mm | - | 9 W/m² | - |
| 1778023520 | 15.56° C | 72% | 1011 hPa | 0 mm | - | 13 W/m² | - |
| 1778023217 | 15.56° C | 71% | 1011 hPa | 0 mm | - | 17 W/m² | - |
| 1778022914 | 15.56° C | 71% | 1010.8 hPa | 0 mm | - | 20 W/m² | - |
| 1778022613 | 15.56° C | 70% | 1010.8 hPa | 0 mm | - | 23 W/m² | - |
| 1778022310 | 15.56° C | 70% | 1011 hPa | 0 mm | - | 27 W/m² | - |
| 1778022006 | 15.56° C | 70% | 1010.9 hPa | 0 mm | - | 32 W/m² | - |
| 1778021703 | 16.11° C | 69% | 1010.9 hPa | 0 mm | - | 35 W/m² | - |
| 1778021399 | 16.11° C | 68% | 1011.1 hPa | 0 mm | - | 39 W/m² | - |
| 1778021096 | 16.67° C | 68% | 1011.1 hPa | 0 mm | - | 42 W/m² | - |
| 1778020793 | 16.67° C | 68% | 1011 hPa | 0 mm | - | 49 W/m² | - |
| 1778020490 | 16.67° C | 67% | 1010.8 hPa | 0 mm | - | 52 W/m² | - |
| 1778020187 | 16.67° C | 66% | 1011.1 hPa | 0 mm | - | 57 W/m² | - |
| 1778019883 | 17.22° C | 66% | 1010.8 hPa | 0 mm | - | 59 W/m² | - |
| 1778019579 | 17.22° C | 66% | 1010.7 hPa | 0 mm | - | 63 W/m² | - |
| 1778019276 | 17.22° C | 65% | 1010.6 hPa | 0 mm | - | 57 W/m² | - |
| 1778018974 | 17.22° C | 65% | 1010.8 hPa | 0 mm | - | 60 W/m² | - |
| 1778018670 | 17.78° C | 63% | 1010.6 hPa | 0 mm | - | 50 W/m² | - |
* Rain latest hour (hover to see other rain measurements)
** Current wind speed in m/s (hover to see current wind gust speed)